[[{"header":{"parameterUnit":"m.s-1","parameterCategory":1,"la1":30.2991,"la2":30.254,"lo1":-89.0895,"lo2":-89.0444,"dy":0.0017,"dx":0.0017,"nx":28,"ny":28,"refTime":"2023-09-14T09:00:00:Z","depth":0,"parameterNumber":2,"parameterNumberName":"U-component_of_WINDS"},"data":[0,0,0,0,0,0,0,0,0,0,0,0,0,0,0,0,0,0,0,0,0,0,0,0,0,0,0,0,0,0,0,0,0,0,0,0,0,0,0,0,0,0,0,0,0,0,0,0,0,0,0,0,0,0,0,0,0,0,-3.0809,-3.0809,0,-3.0807,-3.0807,-3.0807,-3.0695,-3.0692,-3.0689,-3.0686,-3.0684,-3.0687,-3.069,0,0,0,0,0,0,0,0,0,0,0,0,0,-3.0719,-3.0721,-3.0809,-3.0809,-3.0809,-3.0807,-3.0807,-3.0807,-3.0695,-3.0692,-3.0688,-3.0685,-3.0684,-3.0687,-3.069,0,0,0,0,0,0,0,0,0,0,0,0,0,-3.0741,-3.0722,-3.0809,-3.0753,-3.0748,-3.0807,-3.0807,-3.0807,-3.0696,-3.0692,-3.0687,-3.0683,-3.0683,-3.0686,-3.069,-3.0802,0,0,-3.0703,-3.0704,0,0,0,0,0,0,0,0,-3.074,-3.0745,-3.0762,-3.0757,-3.0752,-3.0747,-3.0774,-3.0805,-3.0697,-3.0716,-3.0686,-3.0681,-3.0709,-3.071,-3.0719,-3.0802,-3.0802,-3.0703,-3.0705,-3.0707,-3.0708,0,0,0,0,0,0,0,-3.0739,-3.0744,-3.0808,-3.0762,-3.0756,-3.0729,-3.0727,-3.0779,-3.0737,-3.0714,-3.0706,-3.0707,-3.0705,-3.0716,-3.0719,-3.0802,-3.0703,-3.0706,-3.0709,-3.071,-3.0975,-3.098,0,0,0,0,0,0,-3.0745,-3.0744,-3.0808,-3.0808,-3.0735,-3.0734,-3.0732,-3.0753,-3.0736,-3.0729,-3.0711,-3.0702,-3.0711,-3.0714,-3.0718,-3.0846,-3.0707,-3.0711,-3.0713,-3.0971,-3.0976,-3.0981,0,0,0,0,0,0,-3.0743,-3.0752,-3.0809,-3.0774,-3.0779,-3.074,-3.0764,-3.0755,-3.0765,-3.0733,-3.0725,-3.0729,-3.0708,-3.0712,-3.0782,-3.0845,-3.0713,-3.0716,-3.0965,-3.0973,-3.0979,-3.1105,0,0,0,0,0,0,-3.0741,-3.0752,-3.0794,-3.0776,-3.0781,-3.0873,-3.0768,-3.0758,-3.0772,-3.0761,-3.0749,-3.0743,-3.0705,-3.0776,-3.0786,-3.0848,-3.0719,-3.0959,-3.0969,-3.0977,-3.1095,-3.1116,-3.1133,0,0,0,0,0,-3.0738,-3.083,-3.0797,-3.0805,-3.0833,-3.0876,-3.088,-3.0834,-3.0778,-3.082,-3.0799,-3.0743,-3.0837,-3.0785,-3.0794,-3.0858,-3.0955,-3.0966,-3.0976,-3.1087,-3.1112,-3.1133,0,0,0,0,0,0,-3.0857,-3.0827,-3.0789,-3.0878,-3.0881,-3.0857,-3.0908,-3.0862,-3.0881,-3.0869,-3.0812,-3.081,-3.0888,-3.088,-3.0823,-3.0965,-3.0886,-3.0899,-3.0967,-3.099,-3.1009,-3.1008,-3.0723,0,0,0,0,0,-3.0894,-3.0931,-3.0903,-3.0984,-3.0987,-3.0948,-3.0965,-3.093,-3.093,-3.0931,-3.0916,-3.0919,-3.0948,-3.0969,-3.0995,-3.1094,-3.1089,-3.1143,-3.1162,-3.1178,-3.1189,-3.1239,-3.1262,-3.1016,-3.1016,-3.1015,0,0,-3.0969,-3.0957,-3.0985,-3.1007,-3.1005,-3.1045,-3.095,-3.0996,-3.1025,-3.0938,-3.1002,-3.0991,-3.0991,-3.1075,-3.1112,-3.1071,-3.1256,-3.1191,-3.1204,-3.1206,-3.1252,-3.1276,-3.1296,-3.1023,-3.1022,-3.102,0,0,-3.1127,-3.1123,-3.1188,-3.1188,-3.1186,-3.116,-3.1176,-3.116,-3.1149,-3.1212,-3.1147,-3.1182,-3.1235,-3.1237,-3.1245,-3.1404,-3.1352,-3.1414,-3.1512,-3.1562,-3.1581,-3.1598,-3.1652,-3.1673,-3.1426,-3.1426,-3.1426,0,-3.1221,-3.1278,-3.1228,-3.1279,-3.129,-3.1213,-3.1279,-3.1282,-3.1289,-3.1298,-3.1253,-3.1318,-3.1312,-3.1395,-3.1434,-3.1444,-3.1459,-3.1414,-3.1582,-3.1599,-3.1614,-3.1665,-3.1686,-3.1433,-3.1433,-3.1432,-3.1431,0,-3.1393,-3.1434,-3.1488,-3.1495,-3.1513,-3.1572,-3.153,-3.1554,-3.1518,-3.1496,-3.1561,-3.1552,-3.1574,-3.1592,-3.1557,-3.167,-3.1644,-3.1592,-3.1511,-3.1645,-3.1692,-3.1712,-3.1444,-3.1441,-3.1439,-3.1437,0,0,-3.1624,-3.1603,-3.1623,-3.1625,-3.1618,-3.1648,-3.1703,-3.1724,-3.1745,-3.1753,-3.1797,-3.1844,-3.1795,-3.1804,-3.1769,-3.1813,-3.1937,-3.1755,-3.1754,-3.1787,-3.2058,-3.2096,-3.2119,-3.1904,-3.1908,-3.1911,-3.2058,0,-3.1774,-3.1865,-3.1822,-3.1918,-3.1954,-3.1883,-3.193,-3.1931,-3.1913,-3.1941,-3.1921,-3.1954,-3.1888,-3.1893,-3.1934,-3.1914,-3.199,-3.1903,-3.1943,-3.1945,-3.1942,-3.2144,-3.2184,-3.2323,-3.2076,-3.2079,-3.2081,0,-3.1961,-3.1975,-3.2075,-3.206,-3.2073,-3.2117,-3.2132,-3.2161,-3.216,-3.2144,-3.2154,-3.2109,-3.2161,-3.2083,-3.2154,-3.2096,-3.211,-3.2103,-3.2107,-3.2106,-3.2019,-3.2147,-3.2366,-3.2386,-3.211,-3.2108,-3.2106,0,-3.2115,-3.2161,-3.2225,-3.223,-3.2214,-3.2246,-3.2242,-3.2236,-3.2252,-3.2266,-3.2275,-3.2296,-3.2306,-3.2323,-3.2285,-3.2232,-3.236,-3.2279,-3.2347,-3.2348,-3.2375,-3.2373,-3.2597,-3.239,-3.2389,-3.2389,-3.2388,0,-3.2285,-3.2349,-3.2294,-3.2334,-3.2402,-3.2353,-3.2422,-3.241,-3.2406,-3.2442,-3.2383,-3.2418,-3.2366,-3.2396,-3.2367,-3.2429,-3.2435,-3.2422,-3.2413,-3.2426,-3.2427,-3.2432,-3.242,-3.2394,-3.2393,-3.2392,-3.2391,0,-3.2468,-3.2435,-3.25,-3.248,-3.2477,-3.2528,-3.2511,-3.2547,-3.2525,-3.2571,-3.2579,-3.2545,-3.2577,-3.2541,-3.2572,-3.2552,-3.2634,-3.2613,-3.2634,-3.2627,-3.2695,-3.2688,-3.2927,-3.2955,-3.2734,-3.2736,-3.2738,0,-3.2577,-3.2624,-3.2609,-3.2629,-3.2627,-3.266,-3.2675,-3.2629,-3.2647,-3.265,-3.2685,-3.2712,-3.2731,-3.2786,-3.2764,-3.2786,-3.2763,-3.2845,-3.2765,-3.2776,-3.276,-3.2756,-3.276,-3.286,-3.2863,-3.2865,-3.2867,0,-3.2773,-3.2755,-3.2778,-3.2796,-3.2816,-3.2828,-3.2836,-3.2855,-3.2808,-3.2831,-3.2863,-3.2878,-3.2908,-3.2935,-3.2951,-3.2946,-3.2898,-3.2893,-3.2909,-3.292,-3.293,-3.2923,-3.2675,-3.2887,-3.2885,-3.2883,-3.2882,-3.2881,-3.292,-3.2957,-3.2953,-3.2981,-3.2982,-3.2991,-3.3023,-3.3005,-3.3031,-3.3051,-3.3023,-3.3062,-3.306,-3.3077,-3.3078,-3.3108,-3.3072,-3.3097,-3.3102,-3.3108,-3.3117,-3.2928,-3.3111,-3.311,-3.311,-3.3109,-3.3109,0,-3.311,-3.3104,-3.3131,-3.3143,-3.3165,-3.3119,-3.3126,-3.3147,-3.3182,-3.3184,-3.3204,-3.3241,-3.3267,-3.3248,-3.327,-3.3297,-3.3276,-3.3304,-3.33,-3.3299,-3.3149,-3.3131,-3.3321,-3.3321,-3.3321,-3.3321,-3.3321,-3.3321,-3.3211,-3.3271,-3.3252,-3.3313,-3.3306,-3.3343,-3.335,-3.3358,-3.3359,-3.3402,-3.3424,-3.3411,-3.3404,-3.3426,-3.3448,-3.3441,-3.3451,-3.3486,-3.3472,-3.3331,-3.331,-3.329,-3.3273,-3.349,-3.349,-3.3619,-3.3621,-3.3622]},{"header":{"parameterUnit":"m.s-1","parameterCategory":1,"la1":30.2991,"la2":30.254,"lo1":-89.0895,"lo2":-89.0444,"dy":0.0017,"dx":0.0017,"nx":28,"ny":28,"refTime":"2023-09-14T09:00:00:Z","depth":0,"parameterNumber":3,"parameterNumberName":"V-component_of_WINDS"},"data":[0,0,0,0,0,0,0,0,0,0,0,0,0,0,0,0,0,0,0,0,0,0,0,0,0,0,0,0,0,0,0,0,0,0,0,0,0,0,0,0,0,0,0,0,0,0,0,0,0,0,0,0,0,0,0,0,0,0,-2.5329,-2.533,0,-2.5417,-2.5418,-2.5419,-2.5458,-2.5458,-2.5458,-2.5458,-2.5543,-2.5545,-2.5547,0,0,0,0,0,0,0,0,0,0,0,0,0,-2.5187,-2.5189,-2.5329,-2.533,-2.5331,-2.5417,-2.5418,-2.5419,-2.5458,-2.5458,-2.5458,-2.5458,-2.5542,-2.5545,-2.5548,0,0,0,0,0,0,0,0,0,0,0,0,0,-2.5259,-2.519,-2.5328,-2.5361,-2.5365,-2.5417,-2.5418,-2.542,-2.5458,-2.5458,-2.5458,-2.5458,-2.5541,-2.5545,-2.5548,-2.5573,0,0,-2.5559,-2.556,0,0,0,0,0,0,0,0,-2.5255,-2.5264,-2.5355,-2.5359,-2.5363,-2.5427,-2.5399,-2.5471,-2.5458,-2.5422,-2.5458,-2.5458,-2.5504,-2.551,-2.5527,-2.5577,-2.5581,-2.5559,-2.5561,-2.5563,-2.5564,0,0,0,0,0,0,0,-2.525,-2.526,-2.5363,-2.5356,-2.5361,-2.5369,-2.5379,-2.5413,-2.5463,-2.5426,-2.5429,-2.5439,-2.5506,-2.5524,-2.5529,-2.5582,-2.5559,-2.5562,-2.5564,-2.5566,-2.5654,-2.5654,0,0,0,0,0,0,-2.524,-2.5256,-2.5361,-2.5366,-2.5308,-2.5371,-2.5383,-2.5406,-2.5463,-2.5471,-2.5439,-2.544,-2.5518,-2.5525,-2.5533,-2.5565,-2.5563,-2.5566,-2.5568,-2.5654,-2.5654,-2.5655,0,0,0,0,0,0,-2.5237,-2.5249,-2.5357,-2.5312,-2.5326,-2.5374,-2.54,-2.5408,-2.5426,-2.5473,-2.5481,-2.5448,-2.5518,-2.5528,-2.5563,-2.5568,-2.5568,-2.5571,-2.5654,-2.5654,-2.5654,-2.563,0,0,0,0,0,0,-2.5233,-2.5248,-2.526,-2.5312,-2.5329,-2.5388,-2.54,-2.541,-2.5433,-2.5435,-2.5484,-2.5492,-2.5519,-2.5557,-2.5566,-2.5573,-2.5574,-2.5653,-2.5654,-2.5654,-2.563,-2.5629,-2.5628,0,0,0,0,0,-2.5228,-2.5248,-2.526,-2.5272,-2.5344,-2.5388,-2.5397,-2.5429,-2.5433,-2.5444,-2.5473,-2.549,-2.5566,-2.556,-2.5571,-2.5579,-2.5653,-2.5654,-2.5654,-2.5631,-2.5629,-2.5628,0,0,0,0,0,0,-2.5194,-2.5256,-2.5269,-2.5308,-2.5343,-2.5394,-2.541,-2.5427,-2.546,-2.5461,-2.5498,-2.5508,-2.554,-2.5563,-2.5555,-2.5605,-2.5611,-2.5613,-2.5589,-2.5588,-2.5587,-2.5581,-2.5577,0,0,0,0,0,-2.5191,-2.5223,-2.5275,-2.5303,-2.532,-2.5362,-2.5382,-2.5404,-2.544,-2.5454,-2.5487,-2.552,-2.5551,-2.5571,-2.5602,-2.5633,-2.5643,-2.5644,-2.5643,-2.5642,-2.5644,-2.566,-2.5661,-2.5656,-2.5656,-2.5656,0,0,-2.5185,-2.5223,-2.5241,-2.5297,-2.5327,-2.5357,-2.5374,-2.5405,-2.5428,-2.5458,-2.5494,-2.5518,-2.5558,-2.559,-2.5606,-2.5611,-2.5647,-2.5642,-2.5641,-2.5644,-2.5661,-2.5661,-2.5661,-2.5657,-2.5657,-2.5657,0,0,-2.519,-2.5222,-2.525,-2.5279,-2.5323,-2.5351,-2.5357,-2.5406,-2.5424,-2.546,-2.5484,-2.5509,-2.5563,-2.559,-2.561,-2.5623,-2.5639,-2.5632,-2.5627,-2.5643,-2.5643,-2.5644,-2.5647,-2.5649,-2.5633,-2.5633,-2.5633,0,-2.5177,-2.5226,-2.5261,-2.5292,-2.5315,-2.5345,-2.5372,-2.5398,-2.5449,-2.5464,-2.5468,-2.5535,-2.5563,-2.5602,-2.5605,-2.5621,-2.5628,-2.5627,-2.5641,-2.5641,-2.5642,-2.5646,-2.5648,-2.5632,-2.5632,-2.5633,-2.5633,0,-2.5206,-2.5239,-2.5256,-2.5307,-2.5332,-2.536,-2.5397,-2.5418,-2.5437,-2.5463,-2.5498,-2.5533,-2.5572,-2.5582,-2.56,-2.5623,-2.5624,-2.5634,-2.5641,-2.5641,-2.5645,-2.5647,-2.5631,-2.5631,-2.5631,-2.5632,0,0,-2.5194,-2.5263,-2.5269,-2.5292,-2.5342,-2.5367,-2.5395,-2.5435,-2.5451,-2.5485,-2.5509,-2.5552,-2.5561,-2.5584,-2.5606,-2.5619,-2.5626,-2.5627,-2.5629,-2.5626,-2.5652,-2.5645,-2.5646,-2.5637,-2.5637,-2.5638,-2.5649,0,-2.5206,-2.5261,-2.5292,-2.5333,-2.5363,-2.5391,-2.5416,-2.5448,-2.5472,-2.5499,-2.5525,-2.5556,-2.5566,-2.558,-2.5595,-2.5622,-2.5632,-2.5622,-2.5658,-2.5658,-2.5648,-2.5649,-2.5642,-2.5651,-2.5651,-2.5651,-2.5651,0,-2.5227,-2.5262,-2.5307,-2.5353,-2.5367,-2.5388,-2.5426,-2.5452,-2.5488,-2.5505,-2.553,-2.5551,-2.5579,-2.5583,-2.5622,-2.5614,-2.563,-2.5646,-2.5647,-2.5652,-2.5655,-2.5653,-2.5654,-2.5655,-2.5655,-2.5654,-2.5654,0,-2.5213,-2.5271,-2.5305,-2.5323,-2.5378,-2.5393,-2.5416,-2.5452,-2.5473,-2.5505,-2.5518,-2.5552,-2.5571,-2.5596,-2.5625,-2.5625,-2.566,-2.5666,-2.5673,-2.5672,-2.568,-2.5679,-2.5683,-2.569,-2.569,-2.569,-2.569,0,-2.5223,-2.5249,-2.5299,-2.532,-2.5349,-2.5383,-2.541,-2.5435,-2.5467,-2.5491,-2.5517,-2.5538,-2.5575,-2.5601,-2.5623,-2.5651,-2.5659,-2.5672,-2.5678,-2.567,-2.5668,-2.5681,-2.5681,-2.569,-2.569,-2.569,-2.569,0,-2.5213,-2.5248,-2.5287,-2.5335,-2.5348,-2.5367,-2.5407,-2.5427,-2.5452,-2.5483,-2.5492,-2.553,-2.5562,-2.5593,-2.5635,-2.5649,-2.5677,-2.5684,-2.5665,-2.5669,-2.5674,-2.5673,-2.5687,-2.569,-2.5694,-2.5694,-2.5693,0,-2.5218,-2.5238,-2.5289,-2.5308,-2.5331,-2.5362,-2.5383,-2.5417,-2.5438,-2.548,-2.5494,-2.5528,-2.5557,-2.5605,-2.5636,-2.5667,-2.5676,-2.5678,-2.5681,-2.5672,-2.5675,-2.5674,-2.5676,-2.5677,-2.5677,-2.5677,-2.5677,0,-2.5221,-2.5237,-2.5269,-2.5306,-2.5332,-2.5363,-2.5394,-2.5407,-2.5446,-2.5468,-2.5502,-2.5524,-2.5567,-2.5599,-2.5634,-2.5655,-2.5672,-2.5676,-2.5679,-2.5672,-2.566,-2.5666,-2.5663,-2.5675,-2.5676,-2.5676,-2.5676,-2.5676,-2.5219,-2.5238,-2.5277,-2.5311,-2.5338,-2.5366,-2.5387,-2.5415,-2.5444,-2.5483,-2.55,-2.5533,-2.5567,-2.5616,-2.5636,-2.5661,-2.5665,-2.567,-2.5671,-2.5672,-2.567,-2.5655,-2.5667,-2.5668,-2.5668,-2.5668,-2.5668,0,-2.5224,-2.525,-2.5281,-2.5324,-2.535,-2.5365,-2.54,-2.542,-2.5449,-2.548,-2.5508,-2.5545,-2.5576,-2.5609,-2.5641,-2.5655,-2.5663,-2.5662,-2.5661,-2.5666,-2.5665,-2.5659,-2.5655,-2.5655,-2.5655,-2.5655,-2.5655,-2.5655,-2.523,-2.5263,-2.5283,-2.5329,-2.5355,-2.5389,-2.5407,-2.5432,-2.5457,-2.5498,-2.5525,-2.5546,-2.5577,-2.5612,-2.564,-2.5649,-2.5659,-2.5656,-2.5667,-2.5665,-2.5666,-2.5667,-2.5661,-2.5658,-2.5658,-2.5666,-2.5666,-2.5666]}]]